Spokane Fairchild, WA

12:09 AM PDT on July 25, 2017 (GMT -0700)
Fairchild Air Force Base

Weather History for KSKA - January, 2013

Change the Weather History Date:

Wednesday, January 9, 2013

  Actual Average Record
Temperature  
Mean Temperature 36 °F -  
Max Temperature 41 °F 31 °F 46 °F (2007)
Min Temperature 30 °F 21 °F 10 °F (1998)
Degree Days  
Heating Degree Days 30    
Moisture  
Dew Point 37 °F    
Average Humidity 100    
Maximum Humidity 100    
Minimum Humidity 93    
Precipitation  
Precipitation 0.02 in - - ()
Snow  
Snow 0.00 in - - ()
Snow Depth 6.00 in    
Sea Level Pressure  
Sea Level Pressure 29.69 in    
Wind  
Wind Speed 17 mph (South)    
Max Wind Speed 24 mph    
Max Gust Speed 32 mph    
Visibility 10 miles    
Events Snow    
Averages and records for this station are not official NWS values.
T = Trace of Precipitation, MM = Missing Value Source: NWS Daily Summary

Daily Weather History Graph

Daily Weather History Graph

Search for Another Location

Airport or City:

Trip Planner

Search our weather history database for the weather conditions in past years. The results will help you decide how hot, cold, wet, or windy it might be!

Date:

Astronomy

Jan. 09, 2013 Rise Set
Actual Time 7:37 AM PST 4:19 PM PST
Civil Twilight 7:01 AM PST 4:54 PM PST
Nautical Twilight 6:23 AM PST 5:33 PM PST
Astronomical Twilight 5:46 AM PST 6:10 PM PST
Moon 5:21 AM PST (1/9) 2:25 PM PST (1/9)
Length of Visible Light 9h 52m
Length of Day
8h 41m
Waning Crescent, 6% of the Moon is Illuminated
Jan 9
Waning Crescent
Jan 11
New
Jan 18
First Quarter
Jan 26
Full
Feb 3
Last Quarter

Hourly Weather History & Observations

Time (PST) Temp. Windchill Dew Point Humidity Pressure Visibility Wind Dir Wind Speed Gust Speed Precip Events Conditions
12:58 AM 40.1 °F 29.7 °F 40.1 °F 100% 29.86 in 10.0 mi SSW 24.2 mph 32.2 mph 0.02 in   Overcast
1:58 AM 40.1 °F 31.0 °F 40.1 °F 100% 29.86 in 10.0 mi South 18.4 mph - N/A   Overcast
2:58 AM 38.7 °F 29.8 °F 38.7 °F 100% 29.85 in 10.0 mi South 16.1 mph 24.2 mph N/A   Mostly Cloudy
3:58 AM 38.1 °F 28.4 °F 37.9 °F 99% 29.85 in 10.0 mi South 18.4 mph - N/A   Overcast
4:06 AM 39.2 °F 31.2 °F 39.2 °F 100% 29.78 in 10.0 mi South 13.8 mph 25.3 mph N/A   Overcast
4:34 AM 37.4 °F 27.2 °F 37.4 °F 100% 29.76 in 10.0 mi South 19.6 mph 23.0 mph N/A   Overcast
4:58 AM 38.7 °F 28.6 °F 38.7 °F 100% 29.81 in 10.0 mi South 20.7 mph 26.5 mph 0.00 in   Mostly Cloudy
5:58 AM 37.4 °F 28.9 °F 37.4 °F 100% 29.79 in 10.0 mi South 13.8 mph - N/A   Overcast
6:31 AM 37.4 °F 29.3 °F 37.4 °F 100% 29.72 in 10.0 mi South 12.7 mph - N/A   Mostly Cloudy
6:40 AM 37.4 °F 29.3 °F 37.4 °F 100% 29.72 in 10.0 mi South 12.7 mph - N/A   Mostly Cloudy
6:58 AM 37.9 °F 29.6 °F 37.8 °F 99% 29.77 in 10.0 mi South 13.8 mph - 0.00 in   Overcast
7:13 AM 39.2 °F 30.8 °F 39.2 °F 100% 29.71 in 10.0 mi South 15.0 mph - N/A   Overcast
7:41 AM 39.2 °F 30.5 °F 39.2 °F 100% 29.71 in 10.0 mi South 16.1 mph - N/A   Mostly Cloudy
7:58 AM 38.8 °F 30.0 °F 38.8 °F 100% 29.75 in 10.0 mi SSE 16.1 mph 23.0 mph 0.00 in   Overcast
7:59 AM 39.2 °F 30.2 °F 39.2 °F 100% 29.70 in 10.0 mi SSE 17.3 mph - N/A   Mostly Cloudy
8:00 AM 39.2 °F 30.2 °F 39.2 °F 100% 29.69 in 10.0 mi SSE 17.3 mph - N/A   Mostly Cloudy
8:01 AM 39.2 °F 30.5 °F 39.2 °F 100% 29.69 in 10.0 mi SSE 16.1 mph - N/A   Overcast
8:30 AM 39.2 °F 31.2 °F 39.2 °F 100% 29.67 in 10.0 mi SSE 13.8 mph - N/A   Scattered Clouds
8:41 AM 39.2 °F 30.8 °F 39.2 °F 100% 29.67 in 10.0 mi SSE 15.0 mph - N/A   Partly Cloudy
8:44 AM 39.2 °F 31.6 °F 39.2 °F 100% 29.66 in 10.0 mi SSE 12.7 mph - N/A   Clear
8:58 AM 38.7 °F 30.5 °F 38.7 °F 100% 29.71 in 10.0 mi SSE 13.8 mph 20.7 mph 0.00 in   Partly Cloudy
9:01 AM 39.2 °F 30.8 °F 39.2 °F 100% 29.65 in 10.0 mi SSE 15.0 mph - N/A   Partly Cloudy
9:12 AM 39.2 °F 30.8 °F 39.2 °F 100% 29.65 in 10.0 mi SSE 15.0 mph 20.7 mph N/A   Partly Cloudy
9:58 AM 38.7 °F 29.8 °F 38.7 °F 100% 29.68 in 10.0 mi SSE 16.1 mph 21.9 mph 0.00 in   Partly Cloudy
10:34 AM 39.2 °F 30.2 °F 39.2 °F 100% 29.61 in 10.0 mi South 17.3 mph - N/A   Clear
10:58 AM 39.2 °F 30.2 °F 39.2 °F 100% 29.65 in 10.0 mi South 17.3 mph - 0.00 in   Partly Cloudy
11:25 AM 39.2 °F 30.5 °F 39.2 °F 100% 29.60 in 10.0 mi South 16.1 mph - N/A   Partly Cloudy
11:34 AM 39.2 °F 30.2 °F 39.2 °F 100% 29.59 in 10.0 mi South 17.3 mph - N/A   Scattered Clouds
11:45 AM 39.2 °F 30.8 °F 39.2 °F 100% 29.59 in 10.0 mi South 15.0 mph - N/A   Mostly Cloudy
11:58 AM 39.7 °F 32.7 °F 39.7 °F 100% 29.63 in 10.0 mi South 11.5 mph - 0.00 in   Mostly Cloudy
12:01 PM 39.2 °F 31.6 °F 39.2 °F 100% 29.59 in 10.0 mi South 12.7 mph 20.7 mph N/A   Mostly Cloudy
12:11 PM 39.2 °F 32.0 °F 39.2 °F 100% 29.60 in 10.0 mi South 11.5 mph - N/A   Mostly Cloudy
12:28 PM 41.0 °F 34.7 °F 41.0 °F 100% 29.59 in 10.0 mi South 10.4 mph - N/A   Overcast
12:56 PM 41.0 °F 32.8 °F 41.0 °F 100% 29.59 in 10.0 mi South 16.1 mph - N/A   Overcast
12:59 PM 41.0 °F 33.1 °F 41.0 °F 100% 29.63 in 10.0 mi South 15.0 mph - 0.00 in   Overcast
1:02 PM 41.0 °F 32.5 °F 41.0 °F 100% 29.58 in 10.0 mi South 17.3 mph - N/A   Overcast
1:13 PM 41.0 °F 33.1 °F 41.0 °F 100% 29.58 in 10.0 mi South 15.0 mph - N/A   Overcast
1:45 PM 39.2 °F 30.8 °F 39.2 °F 100% 29.59 in 10.0 mi South 15.0 mph - N/A   Overcast
1:53 PM 41.0 °F 33.1 °F 39.2 °F 93% 29.58 in 10.0 mi SSW 15.0 mph - N/A   Overcast
1:58 PM 40.8 °F 33.3 °F 38.8 °F 93% 29.62 in 10.0 mi South 13.8 mph - 0.00 in   Overcast
2:58 PM 38.5 °F 28.6 °F 38.5 °F 100% 29.66 in 10.0 mi SSW 19.6 mph 24.2 mph N/A   Overcast
3:13 PM 37.4 °F 26.9 °F 37.4 °F 100% 29.61 in 10.0 mi SSW 20.7 mph 25.3 mph N/A Snow Light Snow
3:58 PM 37.4 °F 26.4 °F 37.4 °F 100% 29.68 in 10.0 mi SSW 23.0 mph 31.1 mph 0.00 in Snow Light Snow
4:58 PM 36.0 °F 27.5 °F 36.0 °F 100% 29.69 in 10.0 mi SSW 12.7 mph 23.0 mph 0.00 in Snow Light Snow
5:58 PM 35.1 °F 24.5 °F 35.1 °F 100% 29.70 in 10.0 mi SSW 18.4 mph - 0.00 in Snow Light Snow
6:36 PM 33.8 °F 22.2 °F 33.8 °F 100% 29.67 in 10.0 mi SSW 20.7 mph 26.5 mph N/A   Scattered Clouds
6:49 PM 33.8 °F 22.8 °F 33.8 °F 100% 29.67 in 10.0 mi SSW 18.4 mph 26.5 mph N/A Snow Light Snow
6:52 PM 33.8 °F 22.8 °F 33.8 °F 100% 29.67 in 10.0 mi SSW 18.4 mph 26.5 mph N/A   Mostly Cloudy
6:58 PM 34.2 °F 24.0 °F 34.2 °F 100% 29.73 in 10.0 mi SSW 16.1 mph - 0.00 in   Mostly Cloudy
6:59 PM 33.8 °F 23.9 °F 33.8 °F 100% 29.67 in 10.0 mi SSW 15.0 mph - N/A Snow Light Snow
7:00 PM 33.8 °F 23.5 °F 33.8 °F 100% 29.67 in 10.0 mi SSW 16.1 mph - N/A   Mostly Cloudy
7:01 PM 33.8 °F 23.5 °F 33.8 °F 100% 29.67 in 10.0 mi SSW 16.1 mph - N/A Snow Light Snow
7:19 PM 32.0 °F 21.2 °F 32.0 °F 100% 29.68 in 10.0 mi SSW 16.1 mph - N/A   Mostly Cloudy
7:22 PM 32.0 °F 20.1 °F 32.0 °F 100% 29.68 in 10.0 mi SSW 19.6 mph 25.3 mph N/A Snow Light Snow
7:32 PM 32.0 °F 21.2 °F 32.0 °F 100% 29.68 in 10.0 mi SSW 16.1 mph 23.0 mph N/A   Mostly Cloudy
7:46 PM 32.0 °F 21.2 °F 32.0 °F 100% 29.69 in 10.0 mi SSW 16.1 mph - N/A Snow Light Snow
7:53 PM 32.0 °F 22.1 °F 32.0 °F 100% 29.69 in 10.0 mi SSW 13.8 mph - N/A   Overcast
7:58 PM 33.4 °F 23.1 °F 33.4 °F 100% 29.76 in 10.0 mi SSW 16.1 mph - 0.00 in   Overcast
8:58 PM 32.0 °F 21.6 °F 31.8 °F 99% 29.76 in 10.0 mi SSW 15.0 mph - N/A   Mostly Cloudy
9:58 PM 30.9 °F 21.2 °F 30.9 °F 100% 29.78 in 10.0 mi SSW 12.7 mph - N/A   Partly Cloudy
10:05 PM 32.0 °F 22.1 °F 32.0 °F 100% 29.72 in 10.0 mi South 13.8 mph - N/A   Scattered Clouds
10:31 PM 32.0 °F 24.2 °F 32.0 °F 100% 29.73 in 10.0 mi South 9.2 mph - N/A   Clear
10:58 PM 30.4 °F 23.6 °F 30.4 °F 100% 29.79 in 10.0 mi South 6.9 mph - 0.00 in   Clear
11:04 PM 32.0 °F 24.8 °F 32.0 °F 100% 29.73 in 10.0 mi South 8.1 mph - N/A   Partly Cloudy
11:14 PM 32.0 °F 23.0 °F 32.0 °F 100% 29.74 in 10.0 mi South 11.5 mph - N/A   Mostly Cloudy
11:21 PM 30.2 °F 20.2 °F 30.2 °F 100% 29.74 in 10.0 mi South 12.7 mph - N/A   Mostly Cloudy
11:40 PM 30.2 °F 20.2 °F 30.2 °F 100% 29.73 in 10.0 mi South 12.7 mph - N/A   Overcast
11:50 PM 30.2 °F 20.2 °F 30.2 °F 100% 29.73 in 10.0 mi South 12.7 mph - N/A   Overcast
11:58 PM 30.4 °F 21.0 °F 30.4 °F 100% 29.78 in 10.0 mi South 11.5 mph - 0.00 in   Overcast